ST-2

Last updated on Sat Oct 18 2025 00:02:53 GMT+0000 (Coordinated Universal Time)

1 37606U 11022B 25290.69612983 -.00000221 00000+0 00000+0 0 9994 2 37606 0.0200 231.1323 0001605 351.6233 142.3138 1.00273794 52840
UTC large
Height (km)
Speed (km/s)
/
Latitude / Longitude
Inclination (degrees)
Orbital Period (minutes)
Azimuth
Elevation
Range (km)
Doppler Factor

Next 0 passes for location: London (51.5072 / 0.1276)

Sorry there are no passes over London.